TimeEDT,TemperatureF,Dew PointF,Humidity,Sea Level PressureIn,VisibilityMPH,Wind Direction,Wind SpeedMPH,Gust SpeedMPH,PrecipitationIn,Events,Conditions,WindDirDegrees,DateUTC
12:08 AM,71.6,68.0,88,29.77,10.0,SW,9.2,-,N/A,,Mostly Cloudy,220,2011-10-10 04:08:00
12:29 AM,71.6,68.0,88,29.77,10.0,SW,11.5,-,N/A,,Mostly Cloudy,220,2011-10-10 04:29:00
12:53 AM,71.1,68.0,90,29.78,10.0,SSW,8.1,-,N/A,,Mostly Cloudy,210,2011-10-10 04:53:00
1:38 AM,69.8,66.2,88,29.78,10.0,SSW,10.4,-,N/A,,Scattered Clouds,200,2011-10-10 05:38:00
1:53 AM,70.0,66.9,90,29.78,10.0,SSW,10.4,-,N/A,,Partly Cloudy,200,2011-10-10 05:53:00
2:53 AM,70.0,66.0,87,29.79,10.0,South,6.9,-,N/A,,Clear,180,2011-10-10 06:53:00
3:53 AM,69.1,66.0,90,29.78,10.0,South,4.6,-,N/A,,Clear,190,2011-10-10 07:53:00
4:53 AM,69.8,66.2,88,29.79,10.0,South,4.6,-,N/A,,Overcast,170,2011-10-10 08:53:00
5:53 AM,70.0,66.9,90,29.79,10.0,WSW,3.5,-,N/A,,Partly Cloudy,250,2011-10-10 09:53:00
6:53 AM,69.1,66.9,93,29.82,10.0,WNW,3.5,-,N/A,,Partly Cloudy,300,2011-10-10 10:53:00
7:53 AM,69.1,66.0,90,29.83,10.0,Calm,Calm,-,N/A,,Partly Cloudy,0,2011-10-10 11:53:00
8:53 AM,73.4,68.0,83,29.84,10.0,Calm,Calm,-,N/A,,Partly Cloudy,0,2011-10-10 12:53:00
9:53 AM,77.0,69.1,76,29.85,10.0,Calm,Calm,-,N/A,,Clear,0,2011-10-10 13:53:00
10:53 AM,81.0,72.0,74,29.84,10.0,South,9.2,-,N/A,,Mostly Cloudy,190,2011-10-10 14:53:00
11:53 AM,84.2,71.6,66,29.85,10.0,South,6.9,-,N/A,,Mostly Cloudy,180,2011-10-10 15:53:00
12:14 PM,80.6,71.6,74,29.84,10.0,Variable,3.5,-,N/A,,Overcast,0,2011-10-10 16:14:00
12:53 PM,82.9,72.0,69,29.83,10.0,ESE,5.8,-,N/A,,Mostly Cloudy,120,2011-10-10 16:53:00
1:53 PM,87.1,70.0,57,29.80,10.0,SW,12.7,19.6,N/A,,Scattered Clouds,230,2011-10-10 17:53:00
2:53 PM,87.1,68.0,53,29.79,10.0,SW,11.5,-,N/A,,Clear,220,2011-10-10 18:53:00
3:53 PM,87.8,68.0,52,29.78,10.0,SW,10.4,-,N/A,,Partly Cloudy,230,2011-10-10 19:53:00
4:53 PM,87.1,68.0,53,29.76,10.0,South,9.2,-,N/A,,Mostly Cloudy,190,2011-10-10 20:53:00
5:53 PM,82.0,73.9,76,29.76,10.0,SE,6.9,-,N/A,,Scattered Clouds,130,2011-10-10 21:53:00
6:53 PM,80.1,72.0,76,29.78,10.0,SSW,4.6,-,0.00,Rain,Light Rain,210,2011-10-10 22:53:00
7:53 PM,78.1,72.0,81,29.80,10.0,Calm,Calm,-,0.00,,Overcast,0,2011-10-10 23:53:00
8:53 PM,78.1,72.0,81,29.81,10.0,Calm,Calm,-,N/A,,Overcast,0,2011-10-11 00:53:00
9:53 PM,77.0,71.1,82,29.83,10.0,SW,3.5,-,N/A,,Overcast,230,2011-10-11 01:53:00
10:53 PM,75.9,71.1,85,29.83,10.0,SW,3.5,-,N/A,,Partly Cloudy,220,2011-10-11 02:53:00
11:53 PM,75.0,71.1,87,29.81,10.0,SW,4.6,-,N/A,,Clear,230,2011-10-11 03:53:00